Wind_Speed
20 21 20 19 18 17 14 11 10 10 12 14 16 17 18 19 19 19 20 20 20 21 21 22 22 22 22 22 22 23 23 23 24 26 26 26 27 28 27 26 25 24 24
12 12 11 11 11 10 9 8 9 12 14 15 17 17 18 19 19 19 20 20 21 21 21 21 21 21 21 21 21 21 22 21 22 24 25 26 27 28 28 28 27 26 25
6 6 6 6 7 7 7 8 10 13 15 16 17 18 19 20 20 20 20 20 21 21 21 21 21 22 21 22 21 21 21 21 22 23 24 25 27 28 27 29 29 29 28
2 2 3 4 5 7 8 10 12 13 15 16 17 18 19 20 20 20 19 20 20 21 21 21 21 22 22 22 21 21 21 21 21 21 22 23 25 27 28 28 30 31 31
2 3 4 6 7 8 10 11 13 14 15 16 17 18 19 20 20 20 20 20 20 21 21 21 20 21 22 22 22 22 21 22 22 21 21 22 24 26 28 29 30 32 32
4 5 7 8 9 10 11 13 14 15 16 17 18 19 20 20 20 20 20 20 20 21 21 21 21 21 21 22 22 22 21 21 21 21 22 22 23 24 25 27 29 32 33
6 7 8 10 11 12 14 14 15 16 17 18 19 20 20 20 20 20 20 20 21 21 21 21 21 21 21 22 22 22 22 22 22 22 22 21 21 22 22 23 26 28 31
8 9 10 12 13 14 15 16 17 17 18 19 20 21 21 22 22 22 22 22 22 22 21 21 22 22 21 21 21 21 22 22 22 22 23 23 22 22 23 23 23 25 27
10 11 12 13 14 15 16 17 18 18 19 20 21 22 22 23 23 23 22 22 22 22 22 22 22 21 21 21 21 21 21 22 22 23 23 22 22 22 22 23 24 24 25
12 12 13 13 14 14 15 15 16 17 18 20 21 22 22 22 22 22 22 22 22 22 22 21 21 21 20 20 20 20 21 21 21 22 22 22 22 22 22 22 23 24 24
12 12 12 12 13 13 13 14 15 16 16 17 18 19 20 20 21 21 21 21 21 21 21 21 20 20 21 20 20 20 20 20 20 21 21 21 21 21 22 22 23 24 25
13 12 12 12 12 12 12 13 13 13 14 15 15 15 16 17 17 18 18 18 18 19 19 19 19 20 20 20 20 20 20 20 19 20 20 20 21 21 21 22 23 24 25
14 14 13 13 12 12 12 11 11 11 11 11 11 11 12 13 14 15 15 15 15 16 16 17 17 18 19 18 19 19 19 19 19 20 20 20 21 21 21 22 23 24 25
16 15 15 14 13 13 13 12 11 11 10 10 10 9 10 10 10 10 11 11 12 13 13 13 14 15 15 16 16 16 17 17 17 18 18 19 20 20 21 21 22 23 24
17 17 16 16 15 15 14 13 13 12 11 10 10 9 8 8 8 8 7 7 7 8 9 10 11 11 12 12 13 13 14 15 15 16 16 17 18 19 20 21 22 23 24
17 17 17 17 16 16 15 15 14 14 13 12 11 11 10 10 9 8 7 6 5 4 5 5 6 7 7 8 9 9 10 11 12 13 14 15 16 18 19 20 21 22 23
17 17 17 17 17 17 16 16 16 15 15 14 13 13 13 12 12 10 9 8 6 5 4 3 3 3 3 3 4 5 6 7 8 9 10 12 13 15 16 17 19 20 22
18 18 18 18 18 18 18 17 17 17 17 16 16 16 15 15 15 14 13 12 10 9 7 7 6 6 5 3 3 2 3 4 5 6 7 9 10 12 14 15 17 19 20
17 17 17 18 18 18 18 18 18 18 18 18 17 18 18 17 17 17 17 16 15 14 13 11 10 9 8 7 6 6 5 5 5 5 6 7 9 10 11 12 14 16 18
15 16 16 17 17 17 18 18 18 18 18 18 17 17 17 18 18 17 18 17 17 16 16 15 14 13 12 11 10 9 9 8 8 7 7 7 8 9 10 11 12 14 15
14 15 15 15 16 16 16 17 17 17 18 18 18 18 18 18 18 18 18 18 18 17 17 17 16 15 14 13 13 12 11 11 10 10 9 9 9 9 9 10 11 12 13
12 13 14 14 14 15 16 16 16 16 16 16 16 17 17 17 17 17 17 17 17 17 17 17 17 16 16 15 14 14 13 13 12 12 12 12 12 12 11 12 12 13 14
11 12 12 13 13 14 14 15 15 15 15 15 15 15 15 15 15 15 16 16 16 16 16 16 16 16 15 15 14 14 14 14 14 13 13 13 13 13 13 13 14 14 15
9 10 10 11 12 12 13 13 14 14 15 14 14 14 14 14 15 15 15 15 15 15 15 15 15 15 14 14 15 15 15 15 15 14 15 15 15 15 15 16 16 16 17
8 8 9 9 10 11 11 12 12 13 13 13 14 14 13 13 13 14 14 14 14 14 14 14 14 14 14 14 14 14 14 14 15 15 15 16 16 16 17 17 17 18 19
7 7 8 8 9 9 10 10 11 11 12 12 12 12 12 12 12 12 13 13 13 13 14 14 14 14 14 14 14 14 14 15 15 15 16 16 17 17 17 18 19 19 20
Wind_Direction
251 252 252 246 242 239 231 233 237 242 246 250 256 260 263 264 264 266 267 269 270 271 271 270 269 269 270 269 271 269 270 269 260 254 252 250 249 245 244 246 245 245 244
243 239 230 229 224 218 223 233 245 251 256 259 264 265 265 266 268 270 270 270 270 271 270 269 267 267 268 268 268 267 267 268 262 255 253 251 250 246 244 245 244 244 244
216 211 212 217 224 235 249 260 265 265 265 265 266 267 268 269 271 273 273 272 272 271 270 268 266 265 266 266 265 264 265 266 263 260 254 253 250 246 244 244 243 242 242
200 206 233 254 266 273 273 275 278 276 270 268 268 270 273 273 274 273 273 273 273 271 270 269 267 265 265 264 263 263 264 264 263 262 257 253 250 247 246 245 244 243 243
311 293 296 291 288 288 285 282 280 279 276 272 271 273 274 274 272 272 273 273 272 271 270 270 268 267 265 264 263 262 264 262 262 262 261 256 252 248 247 247 244 242 242
334 320 311 303 297 291 289 286 284 282 278 275 274 274 274 274 273 274 273 272 271 271 271 271 271 270 268 265 263 261 262 261 259 260 261 260 255 252 251 248 246 243 242
334 322 310 302 295 291 289 287 285 283 280 278 277 276 274 273 274 274 274 273 272 272 272 271 271 270 269 266 263 261 260 260 260 260 261 262 260 259 256 254 249 247 244
331 321 313 306 300 296 292 289 286 284 283 280 278 277 276 274 274 274 273 273 273 272 271 271 271 270 268 266 264 262 261 260 260 260 260 261 262 262 262 261 259 254 250
333 324 316 310 304 299 294 291 289 286 283 281 279 278 277 275 274 273 272 272 272 272 271 270 270 268 268 266 264 263 263 261 261 260 261 261 262 263 263 262 260 260 258
339 331 324 316 309 304 300 296 292 289 286 284 281 279 278 277 275 274 273 272 271 271 270 269 268 267 267 266 264 263 264 263 262 262 261 261 262 263 264 263 263 262 262
347 341 334 327 321 314 309 305 301 297 293 290 287 283 281 280 278 276 274 273 272 270 269 269 268 266 265 264 263 263 263 263 263 262 261 261 262 263 264 264 264 263 263
359 354 350 345 338 331 325 319 313 308 303 300 296 291 287 284 281 279 276 273 271 270 269 268 267 266 264 263 263 262 263 262 261 260 261 263 265 265 266 267 266 266 266
15 12 8 3 359 354 348 342 335 329 322 317 312 305 300 295 290 286 282 276 272 272 272 270 267 266 265 264 263 263 263 261 262 263 263 265 266 267 268 268 269 269 270
26 24 21 19 16 13 9 5 360 354 346 341 335 328 322 316 309 300 292 285 279 277 275 273 271 269 267 266 265 264 263 263 264 265 266 267 268 269 270 271 271 271 272
32 31 29 28 26 23 22 21 18 15 11 7 3 360 354 348 339 329 318 305 294 286 279 275 276 275 272 269 266 266 266 266 265 267 269 270 271 272 274 274 275 275 275
34 34 32 31 31 30 29 29 27 26 24 24 23 21 17 12 7 360 353 346 334 318 307 295 290 286 278 275 273 271 270 270 270 272 272 273 275 277 277 277 277 278 278
35 35 35 34 35 35 35 35 35 35 34 34 33 32 31 29 29 30 30 29 27 25 17 9 356 340 317 296 286 281 283 285 283 283 281 280 282 282 281 282 282 282 282
36 36 37 38 38 39 39 40 41 41 42 43 43 43 43 42 44 46 47 48 50 51 50 47 45 44 42 35 25 7 341 324 312 305 301 297 296 295 292 290 289 289 289
36 37 38 39 40 40 41 42 43 44 45 47 49 49 50 50 52 53 54 54 55 56 57 57 56 55 54 53 49 42 31 16 1 347 334 325 318 313 309 305 302 301 300
34 35 37 38 39 41 42 43 44 45 46 48 49 51 51 52 53 54 55 55 56 57 59 59 60 60 61 60 56 51 44 36 28 17 5 354 343 334 328 323 319 316 313
30 32 33 35 37 39 40 41 43 44 46 48 50 51 52 53 54 55 56 56 57 58 58 58 59 59 60 59 57 54 49 43 37 31 23 16 9 2 356 350 346 341 337
25 28 30 32 34 37 38 39 41 43 44 46 48 49 51 53 55 55 56 56 57 57 57 57 57 56 56 55 54 52 49 45 42 39 36 32 27 22 16 11 7 1 357
18 23 26 29 30 33 35 37 38 41 43 44 46 48 49 50 51 52 53 53 53 53 53 53 53 53 52 51 49 47 45 43 41 38 35 33 30 26 21 16 11 8 5
9 14 19 23 25 27 29 32 34 36 39 42 43 44 46 48 49 49 50 50 50 49 49 48 48 47 46 45 44 43 42 41 38 35 32 30 27 25 23 20 18 15 12
357 4 9 13 17 20 23 25 28 31 34 38 39 41 43 45 47 48 48 48 47 46 45 44 43 43 42 40 38 37 36 34 32 30 28 26 25 23 22 21 19 18 15
339 348 356 2 6 10 14 17 20 24 27 31 34 37 40 42 44 45 46 46 45 44 43 42 42 40 39 37 35 33 31 30 28 26 25 23 21 20 18 17 16 15 14
Height
5790 5791 5792 5793 5794 5796 5797 5799 5801 5803 5804 5806 5806 5807 5807 5808 5808 5807 5807 5807 5806 5806 5806 5806 5806 5806 5805 5805 5805 5804 5804 5803 5803 5803 5805 5807 5808 5810 5813 5814 5816 5818 5820
5786 5788 5789 5790 5791 5792 5794 5795 5797 5799 5800 5801 5801 5802 5802 5802 5801 5801 5801 5800 5800 5800 5799 5799 5799 5799 5799 5799 5799 5798 5798 5798 5798 5798 5799 5800 5802 5804 5806 5809 5810 5813 5815
5785 5786 5787 5788 5789 5790 5791 5792 5793 5794 5795 5795 5796 5796 5796 5795 5795 5794 5794 5794 5794 5793 5793 5793 5793 5793 5793 5793 5792 5792 5792 5792 5792 5792 5793 5794 5796 5797 5800 5802 5804 5806 5809
5784 5784 5785 5786 5787 5787 5788 5789 5789 5789 5789 5790 5790 5790 5789 5789 5789 5788 5788 5788 5788 5787 5787 5787 5787 5787 5787 5786 5786 5786 5786 5786 5786 5787 5787 5787 5789 5791 5793 5795 5797 5800 5802
5783 5783 5784 5784 5785 5785 5785 5785 5785 5785 5784 5784 5784 5784 5783 5783 5783 5783 5783 5782 5782 5781 5781 5781 5781 5781 5780 5781 5781 5781 5781 5781 5781 5781 5781 5782 5783 5784 5786 5788 5790 5792 5795
5782 5782 5782 5782 5782 5782 5781 5781 5781 5780 5779 5779 5778 5778 5778 5778 5778 5777 5777 5776 5776 5775 5775 5775 5775 5775 5775 5775 5775 5775 5775 5775 5775 5776 5776 5776 5777 5778 5779 5780 5782 5785 5788
5782 5781 5781 5780 5780 5779 5778 5777 5776 5775 5774 5774 5773 5772 5772 5772 5772 5771 5771 5770 5770 5769 5769 5769 5769 5769 5769 5769 5769 5769 5769 5770 5770 5771 5771 5771 5772 5772 5773 5774 5775 5777 5780
5781 5780 5779 5777 5776 5775 5774 5773 5771 5770 5769 5768 5768 5767 5766 5766 5766 5765 5765 5764 5764 5763 5762 5763 5763 5763 5763 5763 5763 5763 5764 5764 5765 5765 5766 5766 5767 5767 5768 5769 5769 5770 5773
5780 5778 5776 5774 5773 5771 5770 5768 5767 5765 5764 5763 5762 5761 5760 5760 5759 5759 5758 5758 5757 5757 5757 5757 5757 5757 5757 5757 5757 5757 5758 5758 5759 5760 5760 5761 5761 5762 5763 5763 5764 5765 5766
5778 5776 5774 5772 5770 5768 5766 5764 5762 5761 5759 5757 5756 5755 5754 5753 5752 5752 5752 5751 5751 5750 5750 5751 5751 5751 5751 5751 5751 5752 5752 5753 5753 5754 5755 5755 5756 5757 5757 5758 5759 5759 5760
5776 5774 5771 5769 5767 5764 5762 5760 5758 5756 5754 5752 5750 5749 5748 5747 5746 5745 5745 5745 5745 5744 5744 5745 5745 5745 5745 5745 5746 5746 5747 5747 5748 5748 5749 5750 5751 5751 5752 5753 5753 5754 5754
5775 5772 5770 5767 5764 5762 5759 5757 5755 5752 5750 5748 5746 5744 5743 5741 5740 5739 5739 5739 5739 5738 5739 5739 5739 5739 5739 5740 5740 5741 5742 5742 5743 5743 5744 5745 5745 5746 5746 5747 5747 5747 5748
5775 5772 5769 5766 5763 5761 5758 5755 5753 5750 5748 5745 5743 5741 5739 5737 5736 5735 5734 5733 5733 5733 5733 5733 5733 5734 5734 5734 5735 5736 5736 5737 5738 5738 5739 5739 5740 5740 5741 5741 5741 5741 5741
5776 5773 5770 5767 5764 5761 5758 5755 5752 5749 5747 5744 5741 5739 5737 5735 5733 5731 5730 5729 5729 5729 5729 5729 5729 5729 5729 5729 5730 5731 5731 5732 5733 5733 5734 5734 5735 5735 5735 5735 5735 5735 5735
5778 5775 5772 5768 5765 5762 5759 5756 5753 5750 5747 5744 5741 5739 5736 5734 5732 5730 5728 5726 5726 5726 5726 5726 5726 5725 5725 5725 5726 5727 5727 5728 5728 5728 5729 5729 5729 5729 5729 5729 5729 5728 5728
5781 5777 5774 5771 5767 5764 5761 5758 5754 5751 5748 5745 5742 5740 5737 5734 5731 5729 5727 5726 5724 5724 5724 5724 5723 5723 5722 5723 5723 5723 5724 5724 5724 5724 5725 5725 5724 5724 5724 5723 5723 5722 5721
5783 5780 5777 5774 5770 5767 5763 5760 5757 5754 5750 5747 5744 5741 5739 5736 5733 5730 5728 5726 5725 5724 5724 5723 5722 5722 5721 5721 5721 5721 5721 5721 5721 5721 5721 5720 5720 5719 5719 5718 5717 5716 5715
5787 5783 5780 5777 5773 5770 5767 5763 5760 5757 5754 5750 5747 5744 5741 5739 5736 5733 5731 5729 5727 5726 5725 5724 5723 5722 5721 5721 5720 5720 5720 5720 5719 5719 5718 5717 5716 5715 5714 5713 5712 5711 5709
5790 5787 5783 5780 5777 5773 5770 5767 5764 5760 5757 5754 5751 5748 5746 5743 5740 5737 5735 5733 5731 5729 5727 5726 5725 5724 5723 5722 5721 5721 5720 5719 5718 5717 5716 5715 5714 5713 5711 5709 5708 5706 5704
5793 5790 5787 5784 5780 5777 5774 5771 5768 5764 5761 5758 5755 5753 5750 5747 5745 5742 5740 5737 5735 5733 5731 5729 5728 5727 5725 5724 5723 5722 5721 5720 5718 5717 5716 5714 5712 5710 5709 5706 5704 5702 5699
5795 5792 5790 5787 5784 5781 5778 5775 5771 5768 5765 5763 5760 5757 5754 5752 5749 5747 5745 5742 5740 5738 5736 5734 5732 5731 5729 5727 5726 5725 5723 5721 5720 5718 5716 5714 5712 5709 5707 5704 5702 5699 5696
5797 5795 5792 5789 5787 5784 5781 5778 5775 5772 5769 5767 5764 5761 5759 5756 5754 5752 5749 5747 5745 5743 5741 5739 5737 5735 5733 5731 5729 5727 5726 5723 5721 5719 5717 5714 5712 5709 5706 5704 5701 5697 5694
5799 5796 5794 5791 5789 5786 5784 5781 5778 5776 5773 5770 5768 5765 5763 5760 5758 5756 5753 5751 5749 5747 5745 5743 5741 5739 5736 5734 5732 5730 5728 5726 5723 5721 5718 5716 5713 5710 5707 5704 5700 5697 5693
5800 5798 5795 5793 5791 5788 5786 5784 5781 5778 5776 5773 5771 5768 5766 5764 5761 5759 5757 5755 5753 5751 5748 5746 5744 5742 5740 5738 5735 5733 5730 5728 5725 5723 5720 5717 5714 5711 5708 5704 5701 5697 5693
5801 5799 5797 5794 5792 5790 5788 5785 5783 5781 5778 5776 5773 5771 5769 5767 5764 5762 5760 5758 5756 5754 5752 5749 5747 5745 5743 5740 5738 5735 5733 5730 5727 5725 5722 5719 5716 5712 5709 5705 5701 5698 5693
5800 5799 5797 5795 5793 5791 5789 5787 5785 5782 5780 5778 5776 5773 5771 5769 5767 5765 5763 5761 5759 5757 5754 5752 5750 5747 5745 5743 5740 5738 5735 5732 5729 5726 5723 5720 5717 5713 5710 5706 5702 5698 5694